Location: ????? ????
(37.9717°N, 23.4051°E)
Time: 07:21:46
(UTC+00:00)

Atlas Centaur 2 - Visible Passes

Search period start: 13 July 2024 00:00
Search period end: 23 July 2024 00:00
Orbit: 458 x 1276 km, 30.4° (Epoch: 12 July)

Date Brightness Start Highest point End Pass type
(mag) Time Alt. Az. Time Alt. Az. Time Alt. Az.
15 Jul 4.8 01:04:52 10° SSE 01:06:42 11° SSE 01:08:30 10° SE visible
16 Jul 4.7 00:55:38 13° SSE 00:56:57 14° SSE 01:00:29 10° ESE visible
16 Jul 3.9 02:38:38 10° SW 02:45:22 30° SSE 02:51:18 10° ESE visible
17 Jul 4.5 00:46:23 16° SSE 00:47:11 16° SSE 00:51:42 10° ESE visible
17 Jul 3.8 02:28:35 10° SW 02:35:39 33° SSE 02:41:57 10° ESE visible
18 Jul 4.4 00:37:06 19° SSE 00:37:23 19° SSE 00:42:38 10° ESE visible
18 Jul 3.7 02:19:17 13° SW 02:25:55 37° SSE 02:32:31 10° ESE visible
19 Jul 4.3 00:27:46 22° SSE 00:27:46 22° SSE 00:33:24 10° ESE visible
19 Jul 3.6 02:09:58 15° SW 02:16:10 40° SSE 02:23:03 10° E visible
20 Jul 4.2 00:18:25 25° SSE 00:18:25 25° SSE 00:24:01 10° ESE visible
20 Jul 3.5 02:00:37 18° SW 02:06:22 43° S 02:13:30 10° E visible
21 Jul 4.1 00:09:03 27° SE 00:09:03 27° SE 00:14:32 10° ESE visible
21 Jul 3.4 01:51:15 21° SW 01:56:35 45° S 02:03:55 10° ESE visible
21 Jul 4.1 23:59:42 28° SE 23:59:42 28° SE 00:04:58 10° E visible
22 Jul 3.4 01:41:53 24° SW 01:46:46 47° S 01:54:17 10° ESE visible
22 Jul 4.0 23:50:20 29° SE 23:50:20 29° SE 23:55:21 10° E visible
